Skip Page Navigation
NASA JPL Caltech
NASA Logo - Jet Propulsion Laboratory + View the NASA Portal
+ Center for Near-Earth Object Studies
JPL Home Earth Solar System Stars & Galaxies Technology
JPL Solar System Dynamics
BODIES ORBITS EPHEMERIDES TOOLS PHYSICAL DATA DISCOVERY FAQ SITE MAP

Significant website upgrade scheduled for September 27. More details available here.

JPL Small-Body Database Browser
Search: [ help ]  
(2015 SW6)
Classification: Apollo [NEO]          SPK-ID: 3728646
Ephemeris | Orbit Diagram | Orbital Elements | Mission Design | Physical Parameters | Close-Approach Data ]

[ show orbit diagram ]
Orbital Elements at Epoch 2459396.5 (2021-Jul-01.0) TDB
Reference: JPL 21 (heliocentric ecliptic J2000)
 Element Value Uncertainty (1-sigma)   Units 
e .5365279114100201 1.3687e-07  
a 2.077388058182553 4.8199e-09 au
q .9628113821377505 2.85e-07 au
i 8.437084411976377 2.3555e-05 deg
node 356.218568148866 8.1379e-06 deg
peri 320.4939279226155 8.0976e-05 deg
M 345.3063866148898 1.9603e-05 deg
tp 2459441.137614873712
(2021-Aug-14.63761487)
5.9625e-05 TDB
period 1093.64122584173
2.99
3.8061e-06
1.042e-08
d
yr
n .3291755938725911 1.1456e-09 deg/d
Q 3.191964734227355 7.4058e-09 au
  Orbit Determination Parameters
   # obs. used (total)      170  
   data-arc span      2180 days (5.97 yr)  
   first obs. used      2015-09-23  
   last obs. used      2021-09-11  
   planetary ephem.      DE441  
   SB-pert. ephem.      SB441-N16  
   condition code      0  
   norm. resid. RMS      .41125  
   source      ORB  
   producer      Otto Matic  
   solution date      2021-Sep-12 05:49:13  

Additional Information
 Earth MOID = .0216405 au 
 Jupiter MOID = 2.17059 au 
 T_jup = 3.560 
[ show covariance matrix ]

Ephemeris | Orbit Diagram | Orbital Elements | Mission Design | Physical Parameters | Close-Approach Data ]

Physical Parameter Table
Parameter Symbol Value Units Sigma Reference Notes
absolute magnitude H 24.5   n/a MPO451710  
rotation period rot_per 0.0752 h n/a LCDB (Rev. 2020-October); Warner et al., 2009 Result based on less than full coverage, so that the period may be wrong by 30 percent or so.
Published Reference List:
[Thirouin, A.; Moskovitz, N.; Binzel, R.P.; Christensen, E.; et al. (2016) Astron. J. 152, A163.]

[ show close-approach data ]
Ephemeris | Orbit Diagram | Orbital Elements | Mission Design | Physical Parameters | Close-Approach Data ]
ABOUT SSD CREDITS/AWARDS PRIVACY/COPYRIGHT GLOSSARY LINKS
FirstGov 2021-Sep-25 01:52 UT
(server date/time)  
NASA Home Page
Site Manager:   Ryan S. Park
Webmaster  Alan B. Chamberlin